Wind_Speed
9 10 13 11 13 10 8 11 15 15 14 15 12 20 19 15 6 7 8 14 14 19 23 24 30 34 40 43 50 43 47 50 57 55 62 60 62 59 66 65 59 51 44 41
12 14 14 17 16 8 8 12 15 13 7 17 16 22 14 5 3 3 11 16 20 25 27 34 35 41 46 50 56 53 46 48 57 55 58 63 62 64 62 68 66 58 48 44
16 4 19 18 10 9 10 11 11 12 18 21 12 10 8 4 2 6 14 20 22 25 34 40 43 45 53 53 50 42 43 47 51 67 45 52 59 60 61 64 65 65 54 47
18 21 19 14 12 11 12 13 11 13 13 13 11 8 11 8 7 11 18 22 28 34 38 40 45 49 53 48 45 44 43 42 42 49 56 49 52 56 65 56 61 67 60 53
15 16 15 15 12 13 5 14 13 14 16 16 16 11 10 7 6 14 18 33 38 35 39 45 48 52 54 48 45 45 44 36 37 40 56 48 50 52 59 61 54 63 65 57
16 13 13 12 17 14 13 10 12 13 10 11 16 6 7 6 7 16 24 39 38 37 39 46 50 53 51 49 38 40 39 38 39 41 49 50 46 49 59 68 62 54 64 58
17 15 14 17 9 8 8 7 9 11 9 7 6 6 14 5 8 17 27 40 39 38 43 50 53 57 52 49 33 37 39 37 35 39 41 47 48 54 51 71 71 59 52 57
20 12 20 16 14 8 9 8 7 5 8 9 12 8 3 4 8 17 28 41 41 40 43 48 51 55 52 48 32 35 34 31 23 28 30 42 41 53 46 60 62 60 55 53
21 13 17 11 12 11 8 7 6 3 13 6 10 9 9 3 11 20 34 43 43 42 42 47 49 52 50 47 29 24 26 19 15 19 24 32 41 51 46 50 55 52 58 53
14 9 15 12 10 11 8 10 3 6 4 6 7 10 4 9 17 26 37 40 43 41 42 45 48 50 46 44 28 21 19 12 15 14 20 19 31 33 37 44 49 53 54 54
18 13 14 13 17 13 11 12 8 6 6 4 5 1 1 10 14 23 33 38 40 41 43 44 47 46 42 38 23 18 14 6 5 9 15 24 33 29 32 35 32 63 45 45
20 15 19 19 10 12 14 12 13 6 8 10 10 18 3 6 10 26 36 37 37 39 40 41 43 43 38 34 14 13 13 3 3 10 16 22 27 26 32 37 39 21 38 41
24 13 18 10 7 12 16 17 16 13 9 13 10 8 6 19 27 34 34 35 37 39 39 39 39 39 36 31 16 3 12 7 6 8 11 16 19 24 24 26 30 29 30 33
25 15 15 14 4 13 17 21 20 17 10 14 18 20 18 23 33 32 33 35 35 38 38 37 36 34 34 27 22 8 9 8 11 14 17 18 19 21 23 24 28 27 31 36
15 11 16 8 7 8 11 16 22 25 20 15 15 18 21 27 33 33 34 33 33 35 36 36 35 34 31 27 23 16 7 7 12 12 13 19 21 23 25 27 29 29 27 30
18 8 11 12 11 10 11 15 19 22 21 22 20 21 20 26 32 33 31 29 30 33 34 34 32 30 30 29 25 23 25 9 13 12 16 16 18 21 25 25 28 31 36 34
22 12 12 13 10 9 13 25 25 25 21 16 20 20 21 23 22 27 28 25 30 31 31 32 32 30 30 24 26 21 26 27 15 2 9 19 23 27 28 22 25 31 32 42
18 16 11 10 10 8 6 7 14 21 17 17 17 19 19 19 22 26 26 28 29 27 27 29 29 28 28 24 21 21 16 19 18 16 12 10 19 17 14 23 22 17 33 39
16 17 11 12 19 4 5 11 10 16 12 14 16 15 14 17 18 20 25 26 27 26 27 25 28 28 28 25 21 17 14 13 19 15 11 14 10 2 7 15 18 15 17 14
16 17 15 15 13 7 4 11 14 10 11 17 13 12 15 17 15 13 20 22 24 25 25 25 24 26 26 25 21 17 13 9 12 16 12 11 9 6 5 11 14 12 16 17
19 19 19 15 14 6 8 11 8 7 5 13 11 15 18 18 19 22 24 23 23 24 25 25 24 22 24 24 22 19 15 10 7 8 12 11 9 8 9 9 11 13 13 12
20 18 18 19 16 13 14 10 9 10 9 11 16 17 17 18 19 22 23 23 22 22 23 23 24 22 21 22 22 20 17 12 8 7 8 9 9 8 8 11 14 13 10 9
14 13 16 12 15 13 6 7 16 15 12 15 15 19 17 17 19 21 22 23 22 21 21 21 22 23 19 20 20 19 17 15 11 9 7 8 7 7 8 8 11 15 15 14
11 21 13 13 11 9 12 14 12 13 14 16 16 17 17 18 19 20 22 23 22 21 20 19 19 20 21 18 18 17 16 15 13 11 9 8 8 7 7 7 8 12 14 16
15 20 16 9 10 12 8 10 13 15 14 16 14 16 17 18 19 22 23 23 22 21 20 19 17 18 18 18 16 16 14 12 12 12 10 8 8 9 9 8 6 6 10 13
14 22 15 14 11 10 7 9 11 14 13 14 14 16 19 19 22 24 25 23 22 20 20 19 17 16 17 17 16 14 14 12 10 10 10 10 9 9 9 9 9 8 6 5
Wind_Direction
240 226 233 255 214 241 270 276 276 280 283 302 296 294 301 298 280 302 328 322 320 318 314 303 283 299 299 295 297 278 267 249 262 251 245 239 236 234 233 235 232 227 221 228
231 241 226 218 235 246 263 269 280 285 292 303 305 296 300 207 297 330 325 330 326 321 314 318 311 311 314 302 294 287 269 257 252 261 253 243 236 232 231 232 234 229 222 223
227 252 222 240 238 239 255 258 269 283 302 310 285 294 189 225 218 319 330 327 328 305 319 322 318 312 316 311 301 283 273 265 251 242 254 250 241 235 232 227 227 231 225 219
238 238 233 234 225 232 253 238 275 295 306 296 307 283 256 221 245 315 331 335 314 321 323 325 325 326 323 316 308 296 282 275 259 246 238 241 242 237 231 228 225 227 225 222
241 217 218 218 221 223 234 252 282 286 283 287 283 235 151 206 265 320 334 335 333 326 328 327 332 338 330 323 308 298 291 278 271 245 232 238 234 232 237 233 224 223 223 223
244 207 207 221 227 229 243 278 279 272 265 255 246 218 293 279 316 319 319 333 334 329 330 330 337 340 331 324 314 305 300 284 266 250 238 231 235 215 226 231 225 223 220 220
217 216 211 208 204 240 235 261 255 226 198 254 150 263 257 269 325 343 329 334 335 331 332 334 337 338 332 325 319 308 300 288 266 243 230 228 231 212 217 227 225 223 218 216
204 201 210 209 202 226 207 228 274 267 285 305 296 263 167 226 325 334 327 335 334 334 334 335 339 338 334 332 329 315 310 290 266 231 230 223 229 216 215 223 225 230 224 202
203 205 179 186 202 188 209 225 210 263 257 255 247 240 268 236 323 337 329 333 334 332 334 340 342 339 337 333 331 328 318 286 255 224 218 230 227 206 213 224 227 231 228 229
200 178 202 202 190 209 189 203 204 204 252 260 262 282 249 331 332 328 326 334 335 332 334 342 343 343 341 334 330 347 318 290 251 238 207 209 192 197 213 217 223 219 218 218
201 200 188 194 203 208 191 202 211 225 235 281 293 135 293 330 334 328 332 335 336 336 338 341 344 345 341 334 327 327 323 331 215 192 191 185 188 195 214 212 234 234 204 211
195 200 188 212 191 202 214 219 206 223 190 231 285 294 228 329 336 326 332 336 340 339 342 341 345 347 340 338 326 306 307 301 189 188 183 183 190 201 214 217 218 245 216 220
195 200 169 194 238 213 210 212 213 225 248 252 266 253 248 319 311 319 329 336 343 343 343 342 344 348 344 345 338 265 286 250 209 213 216 204 198 208 216 225 230 221 220 223
182 184 210 226 186 182 203 207 215 216 221 245 246 279 289 304 302 314 328 336 342 343 343 344 347 348 350 355 349 37 236 247 223 223 227 227 232 228 227 231 235 235 227 225
190 210 209 213 182 182 196 206 215 222 233 253 266 290 297 293 301 313 325 331 339 342 344 345 349 349 352 357 6 12 198 218 230 232 229 237 234 236 236 238 246 249 241 229
200 205 203 221 223 217 219 221 222 230 239 252 266 276 279 290 297 305 319 330 340 343 343 345 351 350 349 355 1 14 28 81 209 230 232 242 252 248 243 242 250 250 249 247
201 197 198 230 218 224 246 236 229 235 241 246 251 260 280 296 304 308 323 334 340 341 341 345 350 352 350 356 359 11 23 17 34 22 276 273 278 276 245 242 268 253 244 236
191 194 200 214 170 216 232 242 227 228 247 240 253 271 291 303 319 318 327 335 336 336 340 342 346 352 349 352 356 356 27 14 10 8 351 293 267 227 242 245 258 243 245 237
196 192 194 206 210 197 256 250 185 194 228 239 253 274 302 316 329 323 330 326 327 334 342 340 342 347 350 349 347 355 5 11 355 359 337 318 329 140 184 248 235 261 243 218
190 196 201 203 226 222 144 178 200 200 247 244 256 291 308 318 326 295 322 326 331 332 335 339 336 342 344 346 344 348 354 14 354 340 332 314 305 303 284 243 240 248 255 242
184 195 205 208 216 218 185 214 194 204 200 224 269 298 307 315 316 320 324 328 330 328 328 333 336 331 341 342 344 343 347 359 2 329 328 318 301 291 282 275 267 268 239 230
182 185 199 212 221 234 208 221 198 216 233 269 292 298 304 310 314 318 321 323 323 322 322 324 330 330 331 342 343 341 341 347 358 351 338 323 317 297 271 263 266 272 271 247
188 186 190 203 222 226 204 188 219 234 257 282 293 297 304 308 313 315 318 320 317 315 318 320 324 332 325 333 342 342 340 344 350 350 352 347 339 318 286 263 256 259 260 261
183 197 174 192 195 179 224 228 238 259 278 287 292 296 303 305 310 316 321 321 315 312 313 315 315 320 330 320 332 339 342 344 349 352 353 358 356 353 331 298 267 254 251 252
199 187 193 181 178 198 212 240 258 277 280 284 284 285 292 298 307 315 319 323 317 310 310 312 312 313 319 327 318 330 336 344 350 355 356 6 12 9 8 2 343 286 261 252
195 187 185 193 197 193 222 227 272 281 281 282 280 283 289 298 307 313 312 316 315 309 308 310 310 312 313 319 324 316 328 336 348 356 359 1 16 19 21 21 17 22 11 295
Height
3104 3106 3105 3107 3106 3106 3107 3108 3109 3108 3107 3104 3104 3102 3101 3099 3099 3099 3099 3096 3093 3090 3085 3078 3069 3066 3059 3053 3046 3052 3048 3049 3044 3047 3048 3051 3053 3060 3065 3071 3076 3081 3088 3093
3105 3102 3101 3099 3101 3103 3105 3106 3105 3104 3103 3101 3099 3096 3096 3095 3095 3095 3094 3092 3088 3083 3074 3065 3059 3053 3047 3040 3034 3028 3030 3029 3029 3028 3029 3034 3040 3044 3050 3059 3065 3071 3078 3083
3101 3099 3094 3097 3099 3100 3101 3102 3101 3101 3097 3096 3095 3088 3090 3091 3092 3091 3089 3086 3082 3071 3062 3055 3050 3042 3034 3025 3015 3010 3008 3009 3008 3009 3014 3018 3024 3030 3032 3040 3049 3057 3067 3073
3098 3091 3093 3094 3097 3096 3097 3096 3095 3095 3095 3093 3093 3088 3085 3084 3087 3086 3084 3079 3069 3062 3055 3049 3040 3031 3019 3009 2999 2994 2991 2990 2991 2995 2996 3003 3008 3013 3019 3027 3036 3044 3054 3062
3094 3089 3090 3093 3095 3091 3095 3092 3092 3093 3091 3089 3085 3087 3078 3079 3081 3081 3075 3068 3060 3054 3047 3039 3031 3018 3005 2996 2987 2981 2978 2977 2975 2977 2981 2986 2991 3002 3010 3019 3024 3029 3038 3049
3089 3087 3089 3092 3087 3087 3088 3088 3089 3090 3088 3082 3075 3081 3075 3076 3078 3075 3067 3062 3055 3047 3042 3035 3024 3012 3000 2990 2978 2971 2966 2965 2964 2964 2967 2972 2979 2989 2998 3005 3013 3014 3022 3036
3084 3083 3082 3082 3086 3084 3086 3088 3082 3080 3078 3072 3075 3077 3075 3073 3072 3068 3061 3056 3049 3042 3034 3026 3014 3004 2993 2981 2969 2962 2957 2950 2946 2947 2951 2959 2966 2977 2986 2993 3001 3007 3007 3024
3077 3081 3077 3076 3081 3083 3084 3086 3080 3075 3067 3067 3071 3070 3068 3069 3068 3064 3057 3051 3043 3038 3029 3020 3010 2999 2984 2973 2962 2955 2946 2939 2936 2936 2944 2949 2956 2966 2975 2982 2992 3000 3002 3004
3069 3072 3074 3072 3074 3079 3079 3082 3080 3078 3075 3073 3065 3066 3067 3065 3064 3060 3052 3046 3039 3033 3026 3015 3007 2995 2981 2967 2959 2950 2943 2936 2934 2933 2936 2943 2948 2958 2969 2978 2987 2996 3001 3006
3065 3069 3068 3068 3072 3072 3075 3077 3078 3077 3072 3061 3055 3057 3058 3060 3057 3052 3048 3042 3036 3028 3022 3011 3002 2991 2978 2967 2958 2951 2944 2937 2935 2933 2934 2938 2947 2957 2966 2974 2980 2984 2991 2992
3060 3063 3067 3066 3065 3068 3069 3071 3072 3072 3069 3064 3057 3055 3058 3058 3056 3051 3045 3039 3033 3025 3017 3008 2999 2989 2977 2968 2958 2953 2947 2941 2938 2937 2938 2940 2945 2951 2959 2972 2976 2950 2982 2996
3055 3058 3061 3063 3058 3063 3065 3066 3067 3068 3064 3066 3065 3059 3057 3056 3052 3047 3043 3036 3030 3023 3016 3007 2998 2988 2977 2968 2958 2953 2949 2946 2944 2944 2944 2945 2948 2953 2953 2960 2971 2945 2981 2985
3049 3052 3055 3062 3060 3056 3057 3061 3063 3064 3064 3063 3063 3056 3057 3052 3045 3044 3039 3033 3027 3020 3014 3006 2997 2986 2977 2968 2958 2953 2951 2948 2946 2947 2948 2948 2952 2954 2954 2954 2960 2969 2974 2975
3045 3046 3049 3048 3044 3046 3049 3053 3059 3060 3058 3056 3054 3052 3054 3047 3043 3041 3036 3030 3026 3018 3011 3005 2996 2987 2979 2970 2960 2953 2952 2951 2948 2949 2949 2950 2952 2953 2956 2958 2959 2959 2966 2976
3041 3041 3045 3047 3044 3043 3044 3048 3054 3054 3052 3054 3051 3050 3052 3044 3040 3037 3033 3028 3023 3016 3009 3003 2994 2987 2980 2974 2964 2959 2952 2951 2950 2950 2950 2951 2951 2954 2956 2959 2961 2962 2966 2971
3037 3040 3042 3044 3043 3041 3041 3045 3049 3049 3049 3049 3050 3050 3044 3042 3037 3035 3031 3026 3021 3014 3008 3002 2995 2988 2982 2974 2967 2958 2953 2949 2950 2949 2950 2950 2951 2954 2955 2957 2960 2963 2965 2968
3033 3038 3040 3040 3039 3040 3040 3037 3040 3042 3042 3044 3045 3045 3042 3039 3035 3030 3027 3023 3017 3012 3007 3001 2994 2988 2983 2977 2971 2963 2955 2951 2949 2948 2949 2948 2949 2950 2952 2953 2956 2958 2961 2963
3029 3035 3037 3036 3037 3036 3034 3032 3033 3036 3037 3039 3041 3039 3037 3035 3031 3026 3023 3019 3016 3011 3006 3000 2995 2989 2984 2979 2973 2967 2960 2956 2953 2950 2950 2948 2947 2945 2945 2949 2951 2951 2955 2956
3028 3031 3032 3031 3032 3031 3029 3029 3031 3033 3037 3037 3035 3035 3032 3031 3029 3023 3021 3018 3014 3009 3004 2999 2994 2988 2984 2979 2975 2968 2962 2958 2955 2952 2951 2949 2946 2943 2944 2947 2950 2949 2948 2951
3023 3027 3029 3029 3027 3027 3025 3027 3027 3029 3033 3030 3031 3030 3029 3028 3027 3025 3020 3016 3011 3007 3002 2997 2993 2989 2984 2980 2976 2971 2965 2958 2956 2953 2951 2949 2947 2946 2946 2946 2947 2946 2944 2945
3017 3023 3023 3024 3026 3025 3024 3024 3026 3030 3032 3026 3027 3026 3025 3024 3023 3019 3015 3012 3008 3004 3000 2996 2992 2988 2984 2979 2974 2970 2966 2961 2956 2954 2951 2949 2947 2944 2944 2944 2944 2944 2942 2944
3010 3016 3018 3021 3022 3022 3020 3022 3027 3024 3022 3023 3023 3023 3022 3020 3017 3014 3012 3008 3005 3002 2998 2994 2989 2985 2982 2978 2974 2969 2964 2961 2957 2954 2952 2949 2946 2945 2944 2944 2943 2943 2943 2944
3009 3011 3013 3017 3017 3016 3017 3019 3018 3020 3020 3020 3021 3018 3018 3016 3014 3011 3008 3005 3001 2998 2994 2991 2987 2983 2980 2976 2973 2969 2964 2960 2956 2953 2950 2948 2946 2944 2943 2942 2943 2942 2942 2941
3003 3005 3010 3011 3014 3014 3015 3015 3016 3017 3018 3017 3017 3015 3014 3012 3010 3008 3005 3001 2997 2993 2990 2987 2984 2981 2977 2973 2971 2968 2965 2960 2956 2953 2950 2947 2945 2943 2942 2940 2940 2941 2941 2941
3000 3003 3006 3010 3011 3012 3013 3013 3013 3013 3014 3013 3014 3012 3010 3009 3007 3004 3001 2997 2993 2989 2986 2983 2981 2978 2974 2971 2969 2967 2964 2961 2957 2953 2951 2948 2945 2943 2941 2940 2938 2937 2937 2938
2996 2998 3003 3007 3008 3010 3010 3011 3009 3009 3010 3010 3009 3008 3007 3005 3002 2999 2996 2993 2989 2985 2982 2979 2976 2974 2972 2969 2967 2964 2962 2959 2957 2954 2952 2949 2946 2944 2943 2941 2939 2938 2936 2935